Location: Micaflores
(33.8042°N, 117.9078°W)
Time: 17:39:53
(UTC+00:00)

Daily predictions for brighter satellites

Satellite Brightness Start Highest point End
(mag) Time Altitude Azimuth Time Altitude Azimuth Time Altitude Azimuth
ALOS 4.2 12:00:23 10° NE 12:04:29 30° E 12:08:33 10° SSE
Cosmos 1263 4.1 12:07:13 10° N 12:10:18 85° E 12:13:16 10° S
Cosmos 1464 Rocket 4.1 12:04:12 10° S 12:10:33 82° W 12:16:58 10° N
Cosmos 1900 4.3 12:07:13 10° SSW 12:12:05 79° WNW 12:17:02 10° NNE
Cosmos 1356 4.5 12:12:07 10° SW 12:15:08 28° WNW 12:18:10 10° NNW
Cosmos 2034 Rocket 4.2 12:09:21 10° S 12:15:30 76° E 12:21:39 10° N
Cosmos 2369 3.8 12:14:11 10° NNW 12:19:56 88° ENE 12:25:39 10° SSE
Cosmos 1975 2.9 12:16:25 10° S 12:20:26 84° E 12:24:26 10° N
